Location: Czernica
(51.0462°N, 17.2458°E)
Time: 04:24:58
(UTC+01:00)

ISS - Pass Details

Date: 26 January 2019
Orbit: 403 x 411 km, 51.6° (Epoch: 20 February)

Event Time Altitude Azimuth Distance (km) Brightness Sun altitude
Rises 19:13:04 0° 254° (WSW) 2,334 1.2 -25.2°
Reaches altitude 10° 19:15:09 10° 253° (WSW) 1,476 -0.1 -25.6°
Enters shadow 19:16:46 27° 251° (WSW) 837 -1.7 -25.8°
